Location: Augustenthal
(51.7167°N, 10.2833°E)
Time: 12:44:44
(UTC+00:00)

Okean 2 - Pass Details

Date: 18 May 2021
Orbit: 558 x 577 km, 82.5° (Epoch: 19 June)

Event Time Altitude Azimuth Distance (km) Brightness Sun altitude
Exits shadow 23:23:29 35° 141° (SE) 936 4.1 -18.5°
Maximum altitude 23:24:44 47° 94° (E) 767 4.0 -18.5°
Drops below altitude 10° 23:28:44 10° 21° (NNE) 1,892 7.2 -18.5°
Sets 23:30:59 0° 15° (NNE) 2,792 8.5 -18.4°
